Pontiac, MI

9:22 AM EDT on May 23, 2018 (GMT -0400)
Oakland County International

Weather History for KPTK - February, 2013

Change the Weather History Date:

Monday, February 18, 2013

  Actual Average Record
Temperature  
Mean Temperature 29 °F -  
Max Temperature 44 °F 33 °F 64 °F (2017)
Min Temperature 14 °F 18 °F 0 °F (2015)
Degree Days  
Heating Degree Days 36    
Moisture  
Dew Point 18 °F    
Average Humidity 65    
Maximum Humidity 78    
Minimum Humidity 54    
Precipitation  
Precipitation 0.00 in - - ()
Sea Level Pressure  
Sea Level Pressure 29.95 in    
Wind  
Wind Speed 9 mph (SSE)    
Max Wind Speed 18 mph    
Max Gust Speed 26 mph    
Visibility 10 miles    
Events Rain    
Averages and records for this station are not official NWS values.
T = Trace of Precipitation, MM = Missing Value Source: NWS Daily Summary

Daily Weather History Graph

Daily Weather History Graph

Search for Another Location

Airport or City:

Astronomy

Feb. 18, 2013 Rise Set
Actual Time 7:25 AM EST 6:09 PM EST
Civil Twilight 6:57 AM EST 6:38 PM EST
Nautical Twilight 6:24 AM EST 7:11 PM EST
Astronomical Twilight 5:51 AM EST 7:44 PM EST
Moon 11:51 AM EST (2/18) 2:08 AM EST (2/18)
Length of Visible Light 11h 41m
Length of Day
10h 43m
First Quarter, 58% of the Moon is Illuminated
Feb 18
First Quarter
Feb 25
Full
Mar 4
Last Quarter
Mar 11
New
Mar 19
First Quarter

Hourly Weather History & Observations

Time (EST) Temp. Windchill Dew Point Humidity Pressure Visibility Wind Dir Wind Speed Gust Speed Precip Events Conditions
12:53 AM 14.0 °F 6.5 °F 6.1 °F 71% 30.22 in 10.0 mi SE 4.6 mph - N/A   Clear
1:53 AM 15.1 °F 7.7 °F 6.1 °F 68% 30.21 in 10.0 mi SE 4.6 mph - N/A   Clear
2:53 AM 16.0 °F 8.8 °F 6.1 °F 65% 30.21 in 10.0 mi SSE 4.6 mph - N/A   Clear
3:53 AM 15.8 °F 7.2 °F 8.6 °F 73% 30.14 in 10.0 mi SE 5.8 mph - N/A   Clear
4:53 AM 17.1 °F 8.7 °F 9.0 °F 71% 30.17 in 10.0 mi SSE 5.8 mph - N/A   Mostly Cloudy
5:53 AM 18.0 °F 8.7 °F 12.0 °F 78% 30.16 in 10.0 mi SSE 6.9 mph - N/A   Mostly Cloudy
6:53 AM 19.0 °F 8.2 °F 12.0 °F 74% 30.12 in 10.0 mi SE 9.2 mph - N/A   Mostly Cloudy
7:53 AM 19.9 °F 9.3 °F 14.0 °F 78% 30.11 in 10.0 mi SE 9.2 mph - N/A   Overcast
8:53 AM 21.9 °F 10.4 °F 14.0 °F 72% 30.08 in 10.0 mi SE 11.5 mph - N/A   Mostly Cloudy
9:53 AM 24.1 °F 12.5 °F 14.0 °F 65% 30.04 in 10.0 mi SE 12.7 mph - N/A   Mostly Cloudy
10:53 AM 28.0 °F 15.7 °F 15.1 °F 58% 30.01 in 10.0 mi SSE 17.3 mph 23.0 mph N/A   Overcast
11:53 AM 28.9 °F 16.5 °F 15.1 °F 56% 29.98 in 10.0 mi SSE 18.4 mph 26.5 mph N/A   Overcast
12:53 PM 30.9 °F 19.8 °F 17.1 °F 57% 29.95 in 10.0 mi SSE 16.1 mph 21.9 mph N/A   Overcast
1:53 PM 33.1 °F 22.6 °F 18.0 °F 54% 29.91 in 10.0 mi SSE 16.1 mph 26.5 mph N/A   Overcast
2:53 PM 35.1 °F 25.5 °F 19.9 °F 54% 29.87 in 10.0 mi SE 15.0 mph 19.6 mph N/A   Overcast
3:53 PM 37.0 °F 29.3 °F 23.0 °F 57% 29.84 in 10.0 mi SSE 11.5 mph - N/A   Overcast
4:53 PM 37.9 °F 28.9 °F 24.1 °F 57% 29.81 in 10.0 mi SSE 16.1 mph 21.9 mph N/A   Overcast
5:53 PM 37.9 °F 30.0 °F 26.1 °F 62% 29.79 in 10.0 mi SSE 12.7 mph - N/A   Overcast
6:53 PM 39.0 °F 32.3 °F 28.0 °F 65% 29.77 in 10.0 mi SSE 10.4 mph 18.4 mph N/A   Overcast
7:53 PM 39.9 °F 32.5 °F 30.0 °F 68% 29.75 in 10.0 mi SSE 12.7 mph 19.6 mph 0.00 in Rain Light Rain
8:53 PM 42.1 °F 35.2 °F 30.9 °F 65% 29.71 in 10.0 mi SSE 12.7 mph - 0.00 in   Mostly Cloudy
9:53 PM 44.1 °F 38.1 °F 30.0 °F 58% 29.68 in 10.0 mi South 11.5 mph 21.9 mph 0.00 in   Overcast
10:53 PM 43.0 °F 37.2 °F 30.9 °F 62% 29.65 in 10.0 mi South 10.4 mph 18.4 mph N/A   Overcast
11:53 PM 43.0 °F 38.2 °F 30.9 °F 62% 29.61 in 10.0 mi SSE 8.1 mph - N/A   Overcast